Content
SEND FEEDBACK

Daily
Averages
Monthly
Summary
Canada

VICTORIA, BRITISH COLUMBIA


Home > North America > Canada > British Columbia
Elevation: 62 feet     Latitude: 48 39N     Longitude: 123 26W

WEATHER
 
SELECT A DAY
Number of Records: 200,361;   Date Range: 1/1/95 - 12/19/14
 
SHARE

PRINT THIS DATA

[ ← Previous Day ]
WEATHER ALMANAC - FEBRUARY 13, 2013
[ Next Day → ]
[ °C ]   °F
Weather ElementAverageHighLow
Temperature45.1 °F50 °F (2:00 pm)39.2 °F (5:00 am)
Dewpoint35.8 °F38 °F (10:00 am)33.8 °F (1:00 am)
Humidity69.3 %87 % (9:00 pm)51 % (4:00 pm)
Barometer30.40 in30.48 in (11:00 pm)30.29 in (1:00 am)
Wind Speed7.6 mph16.1 mph (1:00 am)
Wind Gust25.3 mph (1:00 am)
Weather ElementAverage
Visibility28.3 mi
Wind DirectionW (268.1 °)

Weather ElementTotal
Precipitation---
Heating Degree Days20.4 (Base 65)
Averaged from 27 records on February 13, 2013
WEATHER CONDITIONS BREAKOUT
WIND DIRECTION BREAKOUT
WEATHER BY HOUR - FEBRUARY 13, 2013
[ °C ]   °F
Local TimeTemperatureDewpointHumidityBarometerVisibilityWind DirectionWind SpeedGust SpeedPrecipitationEventsConditions
1:00 AM46.4 °F33.8 °F62 %30.29 in30.0 miWSW (250°)16.1 mph25.3 mphScattered Clouds
2:00 AM46.4 °F33.8 °F62 %30.30 in30.0 miWSW (250°)10.4 mph21.9 mphPartly Cloudy
3:00 AM44.6 °F33.8 °F66 %30.32 in30.0 miWSW (250°)10.4 mphPartly Cloudy
4:00 AM44.0 °F34.0 °F59 %30.32 in28.0 miWest (260°)10.4 mphScattered Clouds
4:00 AM44.6 °F33.8 °F66 %30.32 in30.0 miWest (260°)10.4 mphPartly Cloudy
5:00 AM39.2 °F33.8 °F81 %30.34 in30.0 miWSW (250°)8.1 mphScattered Clouds
6:00 AM42.8 °F35.6 °F76 %30.35 in30.0 miWest (280°)9.2 mphMostly Cloudy
7:00 AM41.0 °F35.6 °F81 %30.36 in30.0 miWest (280°)6.9 mphMostly Cloudy
8:00 AM42.8 °F37.4 °F81 %30.38 in30.0 miWest (280°)8.1 mphMostly Cloudy
9:00 AM44.6 °F37.4 °F76 %30.39 in30.0 miWNW (290°)6.9 mphMostly Cloudy
10:00 AM46.0 °F38.0 °F63 %30.40 in28.0 miWest (280°)5.8 mphOvercast
10:00 AM46.4 °F37.4 °F71 %30.40 in30.0 miWest (280°)5.8 mphOvercast
11:00 AM46.4 °F37.4 °F71 %30.42 in30.0 miWNW (300°)6.9 mphOvercast
12:00 PM48.2 °F37.4 °F66 %30.42 in30.0 miWest (270°)3.5 mphMostly Cloudy
1:00 PM48.2 °F37.4 °F66 %30.42 in30.0 miWNW (290°)8.1 mphMostly Cloudy
2:00 PM50.0 °F35.6 °F58 %30.42 in30.0 miWest (270°)6.9 mphMostly Cloudy
3:00 PM50.0 °F35.6 °F58 %30.41 in30.0 miWSW (250°)10.4 mphMostly Cloudy
4:00 PM48.0 °F35.0 °F51 %30.43 in28.0 miWest (260°)9.2 mphPartly Cloudy
4:00 PM48.2 °F35.6 °F62 %30.43 in30.0 miWSW (250°)9.2 mphMostly Cloudy
5:00 PM46.4 °F35.6 °F66 %30.43 in30.0 miWSW (250°)6.9 mphMostly Cloudy
6:00 PM44.6 °F33.8 °F66 %30.43 in30.0 miWest (270°)4.6 mphMostly Cloudy
7:00 PM44.6 °F35.6 °F71 %30.45 in30.0 miWSW (240°)4.6 mphMostly Cloudy
8:00 PM44.6 °F35.6 °F71 %30.46 in30.0 miWest (280°)4.6 mphOvercast
9:00 PM41.0 °F37.4 °F87 %30.47 in20.0 miWest (260°)4.6 mphOvercast
10:00 PM42.0 °F37.0 °F76 %30.47 in19.0 miWest (280°)6.9 mphOvercast
10:00 PM42.8 °F37.4 °F81 %30.47 in20.0 miWest (280°)5.8 mphOvercast
11:00 PM42.8 °F35.6 °F76 %30.48 in20.0 miWest (280°)4.6 mphMostly Cloudy
Hourly data recorded from CYYJ, located miles away from Victoria, British Columbia







STORIES FROM OUR PARTNERS